This demonstration page uses our WeatherBlox Daily Observations layout. Learn more.

Left ArrowRight Arrow

39.01783, -85.05884

Hourly Observations for December 10, 2017

Temp ( °F °C ) Dew Point ( °F °C ) Humidity (%) Winds ( mph kmh ) Pressure ( in mb ) Visibility ( mi km ) Precip ( " mm )
12:52 am 00:52 Cloudy 28 -2.2 21 -6.1 75 75 W 14 22 30.09 1019 10 16 0.00 0.00
1:52 am 01:52 Cloudy 27 -2.8 21 -6.1 78 78 W 14 22 30.10 1019 10 16 0.00 0.00
2:49 am 02:49 Partly Cloudy 25 -4 19 -7 80 80 W 10 17 30.15 1021 10 16 0.00 0.00
2:52 am 02:52 Mostly Clear 25 -3.9 19 -7.2 78 78 W 12 19 30.11 1020 10 16 0.00 0.00
3:52 am 03:52 Partly Cloudy 23 -5 17 -8.3 78 78 W 8 13 30.12 1020 10 16 0.00 0.00
4:52 am 04:52 Clear 21 -6.1 16 -8.9 81 81 SW 5 7 30.12 1020 10 16 0.00 0.00
5:52 am 05:52 Clear 22 -5.6 16 -8.9 78 78 SW 8 13 30.13 1020 10 16 0.00 0.00
6:52 am 06:52 Clear 21 -6.1 16 -8.9 81 81 SW 7 11 30.14 1021 10 16 0.00 0.00
7:52 am 07:52 Partly Cloudy 20 -6.7 16 -8.9 85 85 SW 8 13 30.15 1021 10 16 0.00 0.00
8:52 am 08:52 Mostly Cloudy 23 -5 17 -8.3 78 78 SW 9 15 30.14 1021 10 16 0.00 0.00
9:52 am 09:52 Cloudy 25 -3.9 18 -7.8 75 75 SW 13 20 30.15 1021 10 16 0.00 0.00
10:52 am 10:52 Cloudy 27 -2.8 19 -7.2 72 72 SW 12 19 30.14 1021 10 16 0.00 0.00
11:52 am 11:52 Cloudy 30 -1.1 20 -6.7 66 66 SSW 12 19 30.10 1019 10 16 0.00 0.00
12:52 pm 12:52 Cloudy 32 0 20 -6.7 61 61 SW 16 26 30.06 1018 10 16 0.00 0.00
1:52 pm 13:52 Cloudy 33 0.6 20 -6.7 58 58 SSW 13 20 30.02 1017 10 16 0.00 0.00
2:52 pm 14:52 Cloudy 34 1.1 21 -6.1 59 59 S 16 26 29.99 1016 10 16 0.00 0.00
3:52 pm 15:52 Mostly Cloudy 35 1.7 20 -6.7 54 54 SSW 13 20 29.98 1015 10 16 0.00 0.00
4:52 pm 16:52 Mostly Sunny 35 1.7 19 -7.2 52 52 SSW 12 19 29.99 1016 10 16 0.00 0.00
5:52 pm 17:52 Mostly Clear 33 0.6 20 -6.7 58 58 SW 7 11 30.02 1017 10 16 0.00 0.00
6:52 pm 18:52 Clear 33 0.6 20 -6.7 58 58 SSW 7 11 30.04 1017 10 16 0.00 0.00
7:52 pm 19:52 Mostly Clear 33 0.6 20 -6.7 58 58 SW 6 9 30.04 1017 10 16 0.00 0.00
8:52 pm 20:52 Mostly Cloudy 32 0 20 -6.7 61 61 SW 7 11 30.04 1017 10 16 0.00 0.00
9:52 pm 21:52 Partly Cloudy 33 0.6 21 -6.1 61 61 SW 7 11 30.05 1018 10 16 0.00 0.00
10:52 pm 22:52 Mostly Clear 33 0.6 22 -5.6 64 64 WSW 6 9 30.06 1018 10 16 0.00 0.00
11:52 pm 23:52 Clear 31 -0.6 23 -5 72 72 W 8 13 30.08 1019 10 16 0.00 0.00

Powered by AerisWeather